West Yellowstone, MT

10:54 AM MDT on August 30, 2014 (GMT -0600)
RAWS HEBGEN LAKE MT US | Change Station
CLOSE
Current Station
Personal Weather Station
Location: West Yellowstone, MT
Elevation: 6700 ft
Nearby Weather Stations

Elev 6700 ft 44.67 °N, 111.10 °W | Updated 1 hour ago

Overcast
Overcast
56 °F
Feels Like 56 °F
N
0
Wind Variable Wind from North
Gusts 6.0 mph

Today
High -- | Low -- °F
--% Chance of Precip.
Yesterday
High -- | Low -- °F
Precip. -- in
6:44 AM 8:04 PM
Waxing Crescent, 23% visible
Pressure 30.03 in
Visibility 10.0 miles
Clouds Overcast 6000 ft
Dew Point 48 °F
Humidity 74%
Rainfall 0.00 in
Snow Depth 1 in
UV 2 out of 12
Pollen 6.80 out of 12
Air Quality Not available.
Flu Activity Not available.
METAR KWYS 301630Z AUTO 32006KT 10SM OVC060 12/08 A3003 RMK AO2

More Conditions Fewer Conditions

Pressure 30.03 in
Visibility 10.0 miles
Clouds Overcast 6000 ft
Dew Point 48 °F
Humidity 74%
Rainfall 0.00 in
Snow Depth 1 in
UV 2 out of 12
Pollen 6.80 out of 12
Air Quality Not available.
Flu Activity Not available.
METAR KWYS 301630Z AUTO 32006KT 10SM OVC060 12/08 A3003 RMK AO2

More Conditions Fewer Conditions

10-Day Weather Forecast

Almanac

Astronomy

Aug. 30, 2014 Rise Set
Actual Time 6:44 AM MDT 8:04 PM MDT
Civil Twilight 6:14 AM MDT 8:34 PM MDT
Nautical Twilight 5:37 AM MDT 9:11 PM MDT
Astronomical Twilight 4:58 AM MDT 9:49 PM MDT
Moon 11:49 AM MDT 10:27 PM MDT
Length of Visible Light 14h 20m
Length of Day
13h 19m
Tomorrow will be 2m 57s shorter.
Waxing Crescent, 23% of the Moon is Illuminated
Today
Waxing Crescent
Sep 2
First Quarter
Sep 8
Full
Sep 15
Last Quarter
Sep 24
New

Today's Extremes

State Highs State Lows

Community

WunderPhotos

Upload Photos

1,748,562 photos uploaded!

WunderBlogs® & News

Nearby

Snow Depth

Station Depth Elevation
Black Bear 1 in 8150 ft
Carrot Basin 0 in 9000 ft
Beaver Creek 0 in 7850 ft
Tepee Creek 0 in 8000 ft
Lakeview Ridge 0 in 7400 ft

Earthquake Activity

City Distance Mag. Time & Date
No recent earthquake activity has been reported nearby.
Minimum magnitude displayed is 2.5.

Coastal Water Temperatures

Place Temperature
No Stations Reporting

Nearby Weather Stations